Home   Weather   Lennestadt   Past weeks

Flag for Germany Past Weather in Lennestadt, North Rhine-Westphalia, Germany — Yesterday and Last 2 Weeks

39 °F


Feels Like: 33 °F
Forecast: 37 / 46 °F
Wind: 9 mph from Northwest

Location: Hessen

Current Time: Oct 21, 2016 at 11:20:25 AM

Latest Report: Oct 21, 2016 at 10:50 AM

Visibility: 2 mi

Pressure: 29.95 "Hg

Humidity: 100%

Dew Point: 39 °F

Location of LennestadtLocation

Past Weather in Lennestadt — Graph


Lennestadt Temperature Yesterday

Maximum temperature yesterday: 45 °F (at 3:20 PM)
Minimum temperature yesterday: 37 °F (at 7:50 AM)
Average temperature yesterday: 40 °F

High & Low Weather Summary for the Past Weeks

High59 °F (Oct 16, 2:50 PM)100% (Oct 6, 9:50 AM)30.24 "Hg (Oct 6, 9:50 AM)
Low37 °F (Oct 11, 7:50 AM)59% (Oct 16, 3:50 PM)29.68 "Hg (Oct 14, 7:50 PM)
Average45 °F92%30.06 "Hg
* Reported Oct 6 9:20 AM — Oct 21 9:50 AM, Lennestadt, Weather by CustomWeather, © 2016

Note: Actual official high and low records may vary slightly from our data, if they occured in-between our weather recording intervals... More about our weather records


Lennestadt Weather History for the Previous 24 Hours

Scroll right to see more
Time TempWeatherWind HumidityBarometerVisibility
9:50 AM
Fri, Oct 21
39 °FFog.6 mph100%29.92 "Hg2 mi
9:20 AM39 °FScattered clouds.7 mph100%29.92 "Hg2 mi
8:50 AM39 °FFog.7 mph100%29.92 "Hg2 mi
8:20 AM39 °FDrizzle. More clouds than sun.7 mph100%29.92 "Hg1 mi
7:50 AM39 °FDrizzle. Fog.7 mph100%29.92 "Hg1 mi
8:50 PM
Thu, Oct 20
39 °FFog.5 mph100%29.86 "Hg1 mi
8:20 PM39 °FFog.3 mph100%29.86 "Hg1 mi
7:50 PM39 °FPassing clouds.2 mph100%29.89 "Hg4 mi
7:20 PM39 °FPassing clouds.3 mph100%29.86 "HgN/A
6:50 PM39 °FPassing clouds.5 mph100%29.86 "HgN/A
6:20 PM39 °FPassing clouds.5 mph100%29.86 "HgN/A
5:50 PM39 °FPassing clouds.3 mph100%29.86 "HgN/A
5:20 PM41 °FPassing clouds.3 mph100%29.86 "HgN/A
4:50 PM43 °FScattered clouds.3 mph93%29.86 "HgN/A
4:20 PM43 °FPartly sunny.3 mph81%29.86 "HgN/A
3:50 PM43 °FPartly sunny.6 mph87%29.86 "HgN/A
3:20 PM45 °FScattered clouds.5 mph87%29.86 "HgN/A
2:50 PM43 °FScattered clouds.6 mph87%29.86 "HgN/A
2:20 PM41 °FBroken clouds.5 mph93%29.86 "HgN/A
1:50 PM41 °FBroken clouds.5 mph93%29.86 "HgN/A
1:20 PM41 °FBroken clouds.6 mph100%29.86 "HgN/A
12:50 PM39 °FFog.3 mph100%29.89 "Hg2 mi
12:20 PM39 °FDrizzle. More clouds than sun.3 mph100%29.89 "Hg1 mi
11:50 AM39 °FBroken clouds.No wind100%29.89 "Hg2 mi
11:20 AM39 °FChilly.3 mph100%29.86 "Hg1 mi
Weather by CustomWeather, © 2016

See weather overviewHow to use our weather pages